TimePST,TemperatureF,Dew PointF,Humidity,Sea Level PressureIn,VisibilityMPH,Wind Direction,Wind SpeedMPH,Gust SpeedMPH,PrecipitationIn,Events,Conditions,WindDirDegrees,DateUTC
12:15 AM,44.6,33.8,66,29.89,10.0,West,12.7,-,N/A,,Clear,260,2013-02-19 08:15:00
12:35 AM,44.6,33.8,66,29.88,10.0,West,12.7,-,N/A,,Clear,260,2013-02-19 08:35:00
12:55 AM,44.6,32.0,61,29.88,10.0,West,12.7,-,N/A,,Clear,260,2013-02-19 08:55:00
1:35 AM,42.8,33.8,70,29.87,10.0,SW,13.8,-,N/A,,Clear,230,2013-02-19 09:35:00
1:55 AM,39.2,32.0,75,29.86,10.0,SSW,13.8,-,N/A,,Clear,200,2013-02-19 09:55:00
2:15 AM,37.4,32.0,81,29.85,10.0,SSW,15.0,-,N/A,,Clear,210,2013-02-19 10:15:00
2:35 AM,37.4,32.0,81,29.84,10.0,SSW,17.3,-,N/A,,Clear,200,2013-02-19 10:35:00
2:55 AM,37.4,32.0,81,29.84,10.0,SW,16.1,-,N/A,,Clear,220,2013-02-19 10:55:00
3:15 AM,37.4,32.0,81,29.84,10.0,SSW,13.8,-,N/A,,Clear,210,2013-02-19 11:15:00
3:35 AM,39.2,32.0,75,29.84,10.0,SSW,15.0,-,N/A,,Clear,210,2013-02-19 11:35:00
3:55 AM,39.2,32.0,75,29.83,10.0,SSW,15.0,-,N/A,,Clear,210,2013-02-19 11:55:00
4:15 AM,39.2,32.0,75,29.83,10.0,SW,15.0,-,N/A,,Clear,230,2013-02-19 12:15:00
4:55 AM,41.0,35.6,81,29.84,10.0,WSW,17.3,23.0,N/A,,Partly Cloudy,250,2013-02-19 12:55:00
5:15 AM,41.0,35.6,81,29.84,10.0,West,20.7,25.3,N/A,,Partly Cloudy,260,2013-02-19 13:15:00
5:35 AM,41.0,33.8,76,29.84,10.0,West,17.3,-,N/A,,Clear,270,2013-02-19 13:35:00
5:55 AM,41.0,33.8,76,29.84,10.0,West,15.0,-,N/A,,Clear,260,2013-02-19 13:55:00
6:15 AM,41.0,32.0,70,29.84,10.0,WSW,17.3,-,N/A,,Clear,240,2013-02-19 14:15:00
6:55 AM,41.0,32.0,70,29.84,10.0,SW,20.7,-,N/A,,Clear,230,2013-02-19 14:55:00
7:15 AM,39.2,32.0,75,29.84,10.0,SW,19.6,-,N/A,,Clear,230,2013-02-19 15:15:00
7:35 AM,39.2,32.0,75,29.84,10.0,WSW,18.4,21.9,N/A,,Clear,240,2013-02-19 15:35:00
7:55 AM,41.0,32.0,70,29.84,10.0,SW,15.0,-,N/A,,Clear,230,2013-02-19 15:55:00
8:15 AM,42.8,32.0,66,29.84,10.0,SW,20.7,24.2,N/A,,Clear,230,2013-02-19 16:15:00
8:35 AM,41.0,32.0,70,29.84,10.0,SW,18.4,26.5,N/A,,Clear,220,2013-02-19 16:35:00
8:55 AM,42.8,32.0,66,29.83,10.0,SW,18.4,-,N/A,,Clear,230,2013-02-19 16:55:00
9:15 AM,46.4,30.2,53,29.83,10.0,West,24.2,33.4,N/A,,Partly Cloudy,270,2013-02-19 17:15:00
9:35 AM,46.4,30.2,53,29.82,10.0,West,24.2,33.4,N/A,,Partly Cloudy,280,2013-02-19 17:35:00
10:15 AM,46.4,28.4,50,29.81,10.0,West,23.0,31.1,N/A,,Partly Cloudy,280,2013-02-19 18:15:00
10:35 AM,48.2,28.4,46,29.81,10.0,West,26.5,31.1,N/A,,Clear,270,2013-02-19 18:35:00
10:55 AM,48.2,28.4,46,29.80,10.0,West,20.7,29.9,N/A,,Clear,270,2013-02-19 18:55:00
11:15 AM,48.2,28.4,46,29.80,10.0,WNW,25.3,33.4,N/A,,Clear,290,2013-02-19 19:15:00
11:35 AM,48.2,26.6,43,29.80,10.0,West,17.3,24.2,N/A,,Clear,280,2013-02-19 19:35:00
11:55 AM,48.2,26.6,43,29.78,10.0,West,21.9,26.5,N/A,,Clear,280,2013-02-19 19:55:00
12:15 PM,50.0,26.6,40,29.77,10.0,West,18.4,31.1,N/A,,Clear,260,2013-02-19 20:15:00
12:35 PM,50.0,26.6,40,29.76,10.0,West,24.2,-,N/A,,Clear,270,2013-02-19 20:35:00
12:55 PM,50.0,26.6,40,29.75,10.0,West,25.3,36.8,N/A,,Clear,280,2013-02-19 20:55:00
1:15 PM,46.4,26.6,46,29.74,10.0,West,26.5,32.2,N/A,,Scattered Clouds,260,2013-02-19 21:15:00
1:35 PM,46.4,28.4,50,29.74,10.0,West,23.0,29.9,N/A,,Mostly Cloudy,280,2013-02-19 21:35:00
1:55 PM,46.4,28.4,50,29.73,10.0,West,27.6,33.4,N/A,,Overcast,270,2013-02-19 21:55:00
2:15 PM,44.6,28.4,53,29.73,10.0,West,25.3,32.2,N/A,,Overcast,270,2013-02-19 22:15:00
2:35 PM,44.6,30.2,57,29.73,10.0,West,25.3,32.2,N/A,,Overcast,270,2013-02-19 22:35:00
2:55 PM,46.4,28.4,50,29.73,10.0,West,25.3,29.9,N/A,,Overcast,270,2013-02-19 22:55:00
3:15 PM,44.6,26.6,49,29.72,10.0,West,23.0,32.2,N/A,,Overcast,270,2013-02-19 23:15:00
4:55 PM,44.6,32.0,61,29.68,10.0,SSW,15.0,18.4,N/A,,Scattered Clouds,200,2013-02-20 00:55:00
5:15 PM,44.6,32.0,61,29.68,10.0,SSW,13.8,21.9,N/A,,Scattered Clouds,210,2013-02-20 01:15:00
5:35 PM,42.8,33.8,70,29.67,10.0,SW,15.0,19.6,N/A,,Mostly Cloudy,220,2013-02-20 01:35:00
6:15 PM,41.0,35.6,81,29.67,5.0,SSW,15.0,23.0,N/A,,Mostly Cloudy,210,2013-02-20 02:15:00
6:35 PM,39.2,35.6,87,29.67,3.0,SW,12.7,20.7,0.01,,Overcast,230,2013-02-20 02:35:00
7:15 PM,39.2,33.8,81,29.67,10.0,SW,15.0,21.9,N/A,,Overcast,230,2013-02-20 03:15:00
7:35 PM,37.4,33.8,87,29.67,4.0,West,12.7,-,0.02,,Overcast,270,2013-02-20 03:35:00
7:55 PM,35.6,33.8,93,29.66,5.0,West,6.9,-,0.06,,Overcast,260,2013-02-20 03:55:00
8:15 PM,35.6,33.8,93,29.65,4.0,SW,5.8,-,0.02,,Overcast,230,2013-02-20 04:15:00
8:35 PM,35.6,35.6,100,29.65,5.0,SW,8.1,-,0.05,,Overcast,230,2013-02-20 04:35:00
8:55 PM,32.0,32.0,100,29.65,1.8,West,11.5,-,0.10,,Overcast,280,2013-02-20 04:55:00
9:15 PM,33.8,33.8,100,29.64,10.0,West,13.8,18.4,0.02,,Mostly Cloudy,270,2013-02-20 05:15:00
9:35 PM,35.6,32.0,87,29.64,10.0,SW,12.7,-,0.02,,Overcast,220,2013-02-20 05:35:00
9:55 PM,35.6,30.2,81,29.63,10.0,SW,12.7,26.5,0.02,,Scattered Clouds,230,2013-02-20 05:55:00
10:15 PM,35.6,28.4,75,29.64,10.0,SW,11.5,23.0,N/A,,Clear,220,2013-02-20 06:15:00
10:35 PM,35.6,28.4,75,29.61,10.0,West,19.6,26.5,N/A,,Clear,260,2013-02-20 06:35:00
10:55 PM,33.8,26.6,75,29.59,10.0,West,23.0,34.5,N/A,,Clear,260,2013-02-20 06:55:00
11:15 PM,35.6,26.6,70,29.61,10.0,WSW,13.8,28.8,N/A,,Clear,240,2013-02-20 07:15:00
11:35 PM,33.8,26.6,75,29.61,10.0,SSW,17.3,26.5,N/A,,Scattered Clouds,210,2013-02-20 07:35:00
11:55 PM,32.0,28.4,87,29.61,10.0,SW,16.1,21.9,N/A,,Partly Cloudy,220,2013-02-20 07:55:00